N7IVV Remington VA US current weather conditions

sailwx.info

Wind from 008 at 1 knots gusting 2

Air temperature 22.8° C
Dewpoint 22.6° C

Last reported at 2020-Aug-14 11:09 UTC.
Time now 2020-Aug-14 11:37 UTC

Location: N 38°32' W 077°47'.
View on Google Maps.

See reports from other nearby stations

  
Tides and Currents Weather Stations Pressure Air Temp Water Temp Dewpoint Dewpoint Depression Visibility Wind Speed Wind Dir Waves Ship Positions
date/time (UTC)wind fromknots sea level pressurealtimeterstation pressurevisibilityair tempwater tempwave heightnotes
2020-Aug-14 11:09 008 1 gusting 2 22.8
2020-Aug-14 10:59 020 1 gusting 2 22.8
2020-Aug-14 10:49 006 0 gusting 3 22.8
2020-Aug-14 10:39 023 1 gusting 1 22.8
2020-Aug-14 10:29 359 0 gusting 2 22.8
2020-Aug-14 10:19 002 2 gusting 2 22.8
2020-Aug-14 10:10 020 2 gusting 2 22.8
2020-Aug-14 10:00 010 0 gusting 3 22.8
2020-Aug-14 09:50 335 1 gusting 1 22.2
2020-Aug-14 09:39 345 1 gusting 1 22.2
2020-Aug-14 09:29 012 0 gusting 1 22.2
2020-Aug-14 09:19 335 22.2
2020-Aug-14 09:09 335 0 gusting 1 22.2
2020-Aug-14 09:00 360 0 gusting 1 22.2
2020-Aug-14 08:49 345 0 gusting 1 22.2
2020-Aug-14 08:39 335 2 gusting 2 22.2
2020-Aug-14 08:29 330 0 gusting 0 22.2
2020-Aug-14 08:19 327 0 gusting 2 22.2
2020-Aug-14 08:09 335 0 gusting 2 22.2
2020-Aug-14 08:00 335 0 gusting 1 22.8
2020-Aug-14 07:49 335 22.8
2020-Aug-14 07:39 330 0 gusting 1 22.8
2020-Aug-14 07:29 340 1 gusting 1 22.8
2020-Aug-14 07:20 340 0 gusting 2 22.8
2020-Aug-14 07:09 340 0 gusting 0 22.8
2020-Aug-14 06:59 340 0 gusting 1 23.3
2020-Aug-14 06:49 021 0 gusting 1 23.3
2020-Aug-14 06:39 021 23.3
2020-Aug-14 06:29 022 1 gusting 1 23.3
2020-Aug-14 06:19 013 23.3
2020-Aug-14 06:09 018 23.3
2020-Aug-14 05:59 011 1 gusting 2 23.3
2020-Aug-14 05:49 022 2 gusting 4 23.3
2020-Aug-14 05:39 036 0 gusting 0 23.3
2020-Aug-14 05:29 036 0 gusting 0 23.3
2020-Aug-14 05:19 081 0 gusting 0 23.3
2020-Aug-14 05:10 081 23.3
2020-Aug-14 04:59 081 0 gusting 0 22.8
2020-Aug-14 04:50 082 0 gusting 0 22.8
2020-Aug-14 04:39 082 22.8
2020-Aug-14 04:29 082 0 gusting 0 22.8
2020-Aug-14 04:19 082 22.8
2020-Aug-14 04:09 081 0 gusting 0 22.8
2020-Aug-14 04:00 082 0 gusting 1 22.8
2020-Aug-14 03:50 082 22.8
2020-Aug-14 03:39 082 22.8
2020-Aug-14 03:29 082 23.3
2020-Aug-14 03:19 082 0 gusting 0 23.3
2020-Aug-14 03:09 082 23.3
2020-Aug-14 03:00 082 23.9
2020-Aug-14 02:50 082 23.3
2020-Aug-14 02:39 089 23.3
2020-Aug-14 02:29 089 23.3
2020-Aug-14 02:19 093 23.3
2020-Aug-14 02:09 093 23.3
2020-Aug-14 01:59 093 23.9
2020-Aug-14 01:50 093 23.9
2020-Aug-14 01:39 093 23.9
2020-Aug-14 01:29 093 24.4
2020-Aug-14 01:19 093 24.4
2020-Aug-14 01:09 097 23.9
2020-Aug-14 01:00 097 24.4
2020-Aug-14 00:49 097 24.4
2020-Aug-14 00:39 097 24.4
2020-Aug-14 00:29 097 24.4
2020-Aug-14 00:19 097 25.0
2020-Aug-14 00:09 097 25.0
2020-Aug-13 23:59 092 0 gusting 2 25.6
2020-Aug-13 23:09 117 26.1
2020-Aug-13 22:59 117 26.1
2020-Aug-13 22:49 117 26.1
2020-Aug-13 22:39 098 26.7
2020-Aug-13 22:29 101 1 gusting 3 27.2
2020-Aug-13 22:20 212 0 gusting 2 27.8
2020-Aug-13 22:09 076 0 gusting 1 28.3
2020-Aug-13 21:59 089 1 gusting 2 27.2
2020-Aug-13 21:29 065 27.8
2020-Aug-13 21:19 028 28.3
2020-Aug-13 21:09 026 0 gusting 3 28.3
2020-Aug-13 20:59 049 0 gusting 1 28.9
2020-Aug-13 20:49 335 0 gusting 2 28.3
2020-Aug-13 20:39 024 1 gusting 1 28.9
2020-Aug-13 20:29 066 1 gusting 3 28.3
2020-Aug-13 20:20 045 0 gusting 2 27.8
2020-Aug-13 20:09 357 1 gusting 2 29.4
2020-Aug-13 19:59 100 1 gusting 2 27.8
2020-Aug-13 19:49 020 2 gusting 4 27.8
2020-Aug-13 19:39 022 1 gusting 4 27.8
2020-Aug-13 19:29 093 0 gusting 4 27.8
2020-Aug-13 19:19 357 1 gusting 3 27.8
2020-Aug-13 19:09 023 2 gusting 3 27.8
2020-Aug-13 18:59 043 0 gusting 3 26.7
2020-Aug-13 18:49 351 3 gusting 3 26.7
2020-Aug-13 18:40 037 0 gusting 1 27.2
2020-Aug-13 18:30 022 1 gusting 2 26.1
2020-Aug-13 18:19 024 26.1
2020-Aug-13 18:10 008 25.6
2020-Aug-13 17:59 099 3 gusting 3 26.1
2020-Aug-13 17:49 076 25.6
2020-Aug-13 17:39 023 25.0
2020-Aug-13 17:29 022 2 gusting 2 24.4
2020-Aug-13 17:19 017 0 gusting 0 24.4
2020-Aug-13 17:09 016 23.9
2020-Aug-13 16:59 016 23.9
2020-Aug-13 16:50 016 0 gusting 1 23.9
2020-Aug-13 16:39 016 23.9
2020-Aug-13 16:29 037 0 gusting 0 23.9
2020-Aug-13 16:19 037 0 gusting 1 23.9
2020-Aug-13 16:09 357 23.9
2020-Aug-13 15:59 022 0 gusting 1 23.9
2020-Aug-13 15:49 340 1 gusting 1 23.9
2020-Aug-13 15:39 026 0 gusting 2 23.3
2020-Aug-13 15:29 335 0 gusting 2 23.3
2020-Aug-13 15:19 307 0 gusting 1 23.3
2020-Aug-13 15:09 345 0 gusting 4 22.8
2020-Aug-13 14:59 017 1 gusting 2 22.2
2020-Aug-13 14:50 018 1 gusting 1 22.2
2020-Aug-13 14:39 018 0 gusting 3 22.2
2020-Aug-13 14:29 030 0 gusting 0 22.2
2020-Aug-13 14:20 030 0 gusting 1 22.2
2020-Aug-13 14:09 031 1 gusting 3 22.2
2020-Aug-13 14:00 320 21.7
2020-Aug-13 13:49 320 0 gusting 1 21.7
2020-Aug-13 13:39 012 0 gusting 1 21.7
2020-Aug-13 13:29 012 21.7
2020-Aug-13 13:20 083 21.7
2020-Aug-13 13:10 074 0 gusting 1 21.7
2020-Aug-13 12:59 074 0 gusting 1 21.7
2020-Aug-13 12:49 285 3 gusting 5 21.7
2020-Aug-13 12:39 101 2 gusting 2 21.7
2020-Aug-13 12:29 037 0 gusting 3 22.2
2020-Aug-13 12:20 020 2 gusting 6 22.2
2020-Aug-13 12:10 002 1 gusting 3 22.8
2020-Aug-13 12:00 027 3 gusting 4 22.8
2020-Aug-13 11:50 219 0 gusting 0 22.8
2020-Aug-13 11:40 218 23.3
2020-Aug-13 11:29 340 23.3
2020-Aug-13 11:19 340 23.3
2020-Aug-13 11:09 340 0 gusting 1 23.3
2020-Aug-13 11:00 340 0 gusting 0 22.8
2020-Aug-13 10:49 340 22.8
2020-Aug-13 10:39 340 1 gusting 1 22.8
2020-Aug-13 10:29 340 0 gusting 1 22.8
2020-Aug-13 10:19 340 22.8
2020-Aug-13 10:09 340 22.8
2020-Aug-13 09:59 340 0 gusting 0 22.8
2020-Aug-13 09:50 340 22.8
2020-Aug-13 09:40 340 22.8
2020-Aug-13 09:30 340 22.8
2020-Aug-13 09:19 340 22.8
2020-Aug-13 09:09 340 22.8
2020-Aug-13 09:00 340 0 gusting 0 22.8
2020-Aug-13 08:49 340 22.8
2020-Aug-13 08:39 358 0 gusting 0 22.2
2020-Aug-13 08:29 358 0 gusting 0 22.2
2020-Aug-13 08:19 358 0 gusting 1 22.2
2020-Aug-13 08:09 358 22.2
2020-Aug-13 07:59 358 22.2
2020-Aug-13 07:49 358 22.2
2020-Aug-13 07:39 358 22.8
2020-Aug-13 07:29 358 22.8
2020-Aug-13 07:19 358 22.8
2020-Aug-13 07:09 358 22.8
2020-Aug-13 07:00 357 22.8
2020-Aug-13 06:50 352 0 gusting 0 22.8
2020-Aug-13 06:39 352 0 gusting 0 22.8
2020-Aug-13 06:29 010 0 gusting 0 22.8
2020-Aug-13 06:19 010 0 gusting 1 22.8
2020-Aug-13 06:09 010 1 gusting 1 22.8
2020-Aug-13 06:00 010 22.8
2020-Aug-13 05:49 010 0 gusting 0 22.8
2020-Aug-13 05:39 010 1 gusting 1 22.8
2020-Aug-13 05:29 010 0 gusting 1 22.8
2020-Aug-13 05:19 010 22.8
2020-Aug-13 05:09 010 22.8
2020-Aug-13 05:00 010 0 gusting 0 23.3
2020-Aug-13 04:49 010 23.3
2020-Aug-13 04:39 016 0 gusting 1 23.3
2020-Aug-13 04:29 023 1 gusting 3 23.9
2020-Aug-13 04:19 009 0 gusting 1 23.9
2020-Aug-13 04:09 340 23.9
2020-Aug-13 04:00 327 24.4
2020-Aug-13 03:49 287 2 gusting 3 24.4
2020-Aug-13 03:39 310 2 gusting 2 24.4
2020-Aug-13 03:30 284 2 gusting 2 24.4
2020-Aug-13 03:20 305 1 gusting 2 25.0
2020-Aug-13 03:09 244 1 gusting 2 25.0
2020-Aug-13 03:00 241 0 gusting 1 25.0
2020-Aug-13 02:49 249 25.0
2020-Aug-13 02:39 250 25.0
2020-Aug-13 02:29 201 25.0
2020-Aug-13 02:19 201 0 gusting 1 25.0
2020-Aug-13 02:10 201 25.0
2020-Aug-13 01:59 201 2 gusting 3 25.0
2020-Aug-13 01:49 239 1 gusting 3 25.0
2020-Aug-13 01:40 160 25.0
2020-Aug-13 01:29 160 25.0
2020-Aug-13 01:19 160 25.0
2020-Aug-13 01:09 099 0 gusting 2 25.6
2020-Aug-13 00:59 120 0 gusting 1 26.1
2020-Aug-13 00:49 095 1 gusting 2 26.7
2020-Aug-13 00:39 099 26.7
2020-Aug-13 00:30 093 26.7
2020-Aug-13 00:19 091 1 gusting 1 26.7
2020-Aug-13 00:09 112 1 gusting 2 27.2
2020-Aug-12 23:59 110 2 gusting 2 27.2
2020-Aug-12 23:49 101 3 gusting 3 27.2
2020-Aug-12 23:40 086 2 gusting 3 27.8
2020-Aug-12 23:29 125 2 gusting 2 27.8
2020-Aug-12 23:20 130 0 gusting 1 28.3
2020-Aug-12 23:09 162 0 gusting 2 28.9
2020-Aug-12 22:59 113 3 gusting 6 28.9
2020-Aug-12 22:50 125 1 gusting 4 29.4
2020-Aug-12 22:39 126 4 gusting 6 29.4
2020-Aug-12 22:30 113 2 gusting 5 30.0
2020-Aug-12 22:19 127 4 gusting 4 30.6
2020-Aug-12 22:09 151 0 gusting 4 30.6
2020-Aug-12 21:59 194 1 gusting 4 30.6
2020-Aug-12 21:49 149 3 gusting 3 31.1
2020-Aug-12 21:40 146 2 gusting 5 31.1
2020-Aug-12 21:29 134 1 gusting 1 31.1
2020-Aug-12 21:19 138 1 gusting 3 29.4
2020-Aug-12 21:09 127 3 gusting 4 29.4
2020-Aug-12 20:59 110 5 gusting 9 30.0
2020-Aug-12 20:49 185 4 gusting 7 30.0
2020-Aug-12 20:39 136 3 gusting 5 30.0
2020-Aug-12 20:29 124 4 gusting 6 30.0
2020-Aug-12 20:20 150 1 gusting 6 30.0
2020-Aug-12 20:09 150 2 gusting 8 30.0
2020-Aug-12 20:00 106 3 gusting 6 30.0
2020-Aug-12 19:49 108 6 gusting 8 30.0
2020-Aug-12 19:39 097 4 gusting 4 32.2
2020-Aug-12 19:29 201 2 gusting 4 31.7
2020-Aug-12 19:19 241 2 gusting 3 32.2
2020-Aug-12 19:09 268 3 gusting 4 32.2
2020-Aug-12 18:59 192 2 gusting 4 31.7
2020-Aug-12 18:49 257 3 gusting 5 31.7
2020-Aug-12 18:39 295 31.7
2020-Aug-12 18:29 195 3 gusting 5 32.2
2020-Aug-12 18:19 033 0 gusting 1 31.1
2020-Aug-12 18:09 117 0 gusting 3 32.2
2020-Aug-12 17:59 060 32.2
2020-Aug-12 17:49 066 5 gusting 5 31.7
2020-Aug-12 17:39 062 1 gusting 1 32.2
2020-Aug-12 17:29 189 2 gusting 2 31.1
2020-Aug-12 17:19 024 1 gusting 2 30.0
2020-Aug-12 17:09 321 0 gusting 1 30.6
2020-Aug-12 16:59 060 0 gusting 0 31.1
2020-Aug-12 16:49 140 1 gusting 1 31.1
2020-Aug-12 16:39 085 1 gusting 1 30.6
2020-Aug-12 16:30 108 0 gusting 2 30.6
2020-Aug-12 16:20 124 1 gusting 1 30.6
2020-Aug-12 16:00 035 0 gusting 1 28.9
2020-Aug-12 15:49 009 0 gusting 1 29.4
2020-Aug-12 15:39 133 2 gusting 3 28.9
2020-Aug-12 15:29 020 1 gusting 2 28.9
2020-Aug-12 15:19 018 28.3
2020-Aug-12 15:09 012 27.8
2020-Aug-12 14:59 008 1 gusting 2 27.2
2020-Aug-12 14:50 316 2 gusting 2 27.2
2020-Aug-12 14:39 016 2 gusting 2 27.2
2020-Aug-12 14:29 307 27.2
2020-Aug-12 14:19 246 26.7
2020-Aug-12 14:10 305 0 gusting 0 26.1
2020-Aug-12 13:59 304 25.6
2020-Aug-12 13:49 226 2 gusting 3 25.0
2020-Aug-12 13:40 172 24.4
2020-Aug-12 13:30 233 24.4
2020-Aug-12 13:19 293 0 gusting 0 24.4
2020-Aug-12 13:09 293 24.4
2020-Aug-12 13:00 231 0 gusting 1 23.9
2020-Aug-12 12:50 257 1 gusting 3 23.9
2020-Aug-12 12:39 246 1 gusting 1 23.9
2020-Aug-12 12:29 255 1 gusting 1 23.9
2020-Aug-12 12:19 270 1 gusting 2 23.3
2020-Aug-12 12:10 302 0 gusting 1 23.3
2020-Aug-12 11:59 010 0 gusting 0 23.3
2020-Aug-12 11:49 010 0 gusting 1 23.3
2020-Aug-12 11:39 010 23.3
2020-Aug-12 11:30 010 0 gusting 1 23.3
2020-Aug-12 11:19 010 23.3
2020-Aug-12 11:09 009 1 gusting 1 23.3
2020-Aug-12 11:00 010 23.3